Year,Month,Day,Hour,Minute,Value (Times are PST for temperature in C)
2018,06,19,00,00,21.20
2018,06,19,00,01,21.10
2018,06,19,00,02,21.10
2018,06,19,00,03,21.10
2018,06,19,00,04,21.00
2018,06,19,00,05,21.00
2018,06,19,00,06,20.90
2018,06,19,00,07,20.90
2018,06,19,00,08,20.80
2018,06,19,00,09,20.80
2018,06,19,00,10,20.80
2018,06,19,00,11,20.80
2018,06,19,00,12,20.80
2018,06,19,00,13,20.80
2018,06,19,00,14,20.80
2018,06,19,00,15,20.70
2018,06,19,00,16,20.70
2018,06,19,00,17,20.70
2018,06,19,00,18,20.60
2018,06,19,00,19,20.60
2018,06,19,00,20,20.60
2018,06,19,00,21,20.50
2018,06,19,00,22,20.40
2018,06,19,00,23,20.40
2018,06,19,00,24,20.30
2018,06,19,00,25,20.20
2018,06,19,00,26,20.20
2018,06,19,00,27,20.20
2018,06,19,00,28,20.10
2018,06,19,00,29,20.10
2018,06,19,00,30,20.00
2018,06,19,00,31,20.00
2018,06,19,00,32,19.90
2018,06,19,00,33,19.90
2018,06,19,00,34,19.90
2018,06,19,00,35,19.80
2018,06,19,00,36,19.80
2018,06,19,00,37,19.70
2018,06,19,00,38,19.70
2018,06,19,00,39,19.60
2018,06,19,00,40,19.60
2018,06,19,00,41,19.60
2018,06,19,00,42,19.50
2018,06,19,00,43,19.50
2018,06,19,00,44,19.40
2018,06,19,00,45,19.40
2018,06,19,00,46,19.40
2018,06,19,00,47,19.30
2018,06,19,00,48,19.30
2018,06,19,00,49,19.30
2018,06,19,00,50,19.20
2018,06,19,00,51,19.20
2018,06,19,00,52,19.20
2018,06,19,00,53,19.10
2018,06,19,00,54,19.10
2018,06,19,00,55,19.00
2018,06,19,00,56,19.00
2018,06,19,00,57,18.90
2018,06,19,00,58,18.90
2018,06,19,00,59,18.90
2018,06,19,01,00,18.90
2018,06,19,01,01,18.80
2018,06,19,01,02,18.80
2018,06,19,01,03,18.80
2018,06,19,01,04,18.80
2018,06,19,01,05,18.80
2018,06,19,01,06,18.80
2018,06,19,01,07,18.80
2018,06,19,01,08,18.70
2018,06,19,01,09,18.70
2018,06,19,01,10,18.70
2018,06,19,01,11,18.70
2018,06,19,01,12,18.70
2018,06,19,01,13,18.70
2018,06,19,01,14,18.70
2018,06,19,01,15,18.70
2018,06,19,01,16,18.70
2018,06,19,01,17,18.70
2018,06,19,01,18,18.70
2018,06,19,01,19,18.70
2018,06,19,01,20,18.70
2018,06,19,01,21,18.70
2018,06,19,01,22,18.80
2018,06,19,01,23,18.80
2018,06,19,01,24,18.80
2018,06,19,01,25,18.80
2018,06,19,01,26,18.80
2018,06,19,01,27,18.80
2018,06,19,01,28,18.80
2018,06,19,01,29,18.80
2018,06,19,01,30,18.80
2018,06,19,01,31,18.80
2018,06,19,01,32,18.80
2018,06,19,01,33,18.80
2018,06,19,01,34,18.80
2018,06,19,01,35,18.80
2018,06,19,01,36,18.80
2018,06,19,01,37,18.80
2018,06,19,01,38,18.80
2018,06,19,01,39,18.80
2018,06,19,01,40,18.90
2018,06,19,01,41,19.00
2018,06,19,01,42,19.10
2018,06,19,01,43,19.30
2018,06,19,01,44,19.40
2018,06,19,01,45,19.50
2018,06,19,01,46,19.50
2018,06,19,01,47,19.60
2018,06,19,01,48,19.60
2018,06,19,01,49,19.70
2018,06,19,01,50,19.70
2018,06,19,01,51,19.80
2018,06,19,01,52,19.80
2018,06,19,01,53,19.70
2018,06,19,01,54,19.70
2018,06,19,01,55,19.60
2018,06,19,01,56,19.60
2018,06,19,01,57,19.50
2018,06,19,01,58,19.40
2018,06,19,01,59,19.30
2018,06,19,02,00,19.20
2018,06,19,02,01,19.20
2018,06,19,02,02,19.10
2018,06,19,02,03,19.00
2018,06,19,02,04,19.00
2018,06,19,02,05,18.90
2018,06,19,02,06,18.80
2018,06,19,02,07,18.80
2018,06,19,02,08,18.70
2018,06,19,02,09,18.70
2018,06,19,02,10,18.60
2018,06,19,02,11,18.50
2018,06,19,02,12,18.50
2018,06,19,02,13,18.40
2018,06,19,02,14,18.40
2018,06,19,02,15,18.40
2018,06,19,02,16,18.30
2018,06,19,02,17,18.30
2018,06,19,02,18,18.30
2018,06,19,02,19,18.20
2018,06,19,02,20,18.20
2018,06,19,02,21,18.20
2018,06,19,02,22,18.20
2018,06,19,02,23,18.10
2018,06,19,02,24,18.10
2018,06,19,02,25,18.10
2018,06,19,02,26,18.10
2018,06,19,02,27,18.10
2018,06,19,02,28,18.10
2018,06,19,02,29,18.10
2018,06,19,02,30,18.10
2018,06,19,02,31,18.10
2018,06,19,02,32,18.10
2018,06,19,02,33,18.10
2018,06,19,02,34,18.10
2018,06,19,02,35,18.10
2018,06,19,02,36,18.10
2018,06,19,02,37,18.10
2018,06,19,02,38,18.10
2018,06,19,02,39,18.10
2018,06,19,02,40,18.10
2018,06,19,02,41,18.20
2018,06,19,02,42,18.20
2018,06,19,02,43,18.20
2018,06,19,02,44,18.20
2018,06,19,02,45,18.30
2018,06,19,02,46,18.30
2018,06,19,02,47,18.30
2018,06,19,02,48,18.30
2018,06,19,02,49,18.30
2018,06,19,02,50,18.30
2018,06,19,02,51,18.30
2018,06,19,02,52,18.30
2018,06,19,02,53,18.20
2018,06,19,02,54,18.20
2018,06,19,02,55,18.20
2018,06,19,02,56,18.20
2018,06,19,02,57,18.20
2018,06,19,02,58,18.20
2018,06,19,02,59,18.10
2018,06,19,03,00,18.10
2018,06,19,03,01,18.10
2018,06,19,03,02,18.10
2018,06,19,03,03,18.10
2018,06,19,03,04,18.10
2018,06,19,03,05,18.10
2018,06,19,03,06,18.10
2018,06,19,03,07,18.10
2018,06,19,03,08,18.10
2018,06,19,03,09,18.10
2018,06,19,03,10,18.10
2018,06,19,03,11,18.10
2018,06,19,03,12,18.00
2018,06,19,03,13,18.00
2018,06,19,03,14,17.90
2018,06,19,03,15,17.90
2018,06,19,03,16,17.90
2018,06,19,03,17,17.90
2018,06,19,03,18,17.80
2018,06,19,03,19,17.80
2018,06,19,03,20,17.80
2018,06,19,03,21,17.80
2018,06,19,03,22,17.70
2018,06,19,03,23,17.70
2018,06,19,03,24,17.70
2018,06,19,03,25,17.70
2018,06,19,03,26,17.70
2018,06,19,03,27,17.70
2018,06,19,03,28,17.70
2018,06,19,03,29,17.70
2018,06,19,03,30,17.70
2018,06,19,03,31,17.70
2018,06,19,03,32,17.80
2018,06,19,03,33,17.80
2018,06,19,03,34,17.80
2018,06,19,03,35,17.80
2018,06,19,03,36,17.90
2018,06,19,03,37,17.90
2018,06,19,03,38,17.90
2018,06,19,03,39,18.00
2018,06,19,03,40,18.00
2018,06,19,03,41,18.10
2018,06,19,03,42,18.10
2018,06,19,03,43,18.20
2018,06,19,03,44,18.20
2018,06,19,03,45,18.20
2018,06,19,03,46,18.20
2018,06,19,03,47,18.30
2018,06,19,03,48,18.30
2018,06,19,03,49,18.30
2018,06,19,03,50,18.30
2018,06,19,03,51,18.40
2018,06,19,03,52,18.40
2018,06,19,03,53,18.40
2018,06,19,03,54,18.40
2018,06,19,03,55,18.40
2018,06,19,03,56,18.40
2018,06,19,03,57,18.40
2018,06,19,03,58,18.40
2018,06,19,03,59,18.40
2018,06,19,04,00,18.40
2018,06,19,04,01,18.40
2018,06,19,04,02,18.40
2018,06,19,04,03,18.40
2018,06,19,04,04,18.40
2018,06,19,04,05,18.40
2018,06,19,04,06,18.40
2018,06,19,04,07,18.40
2018,06,19,04,08,18.30
2018,06,19,04,09,18.30
2018,06,19,04,10,18.30
2018,06,19,04,11,18.30
2018,06,19,04,12,18.30
2018,06,19,04,13,18.30
2018,06,19,04,14,18.30
2018,06,19,04,15,18.30
2018,06,19,04,16,18.30
2018,06,19,04,17,18.30
2018,06,19,04,18,18.30
2018,06,19,04,19,18.30
2018,06,19,04,20,18.30
2018,06,19,04,21,18.30
2018,06,19,04,22,18.30
2018,06,19,04,23,18.30
2018,06,19,04,24,18.30
2018,06,19,04,25,18.30
2018,06,19,04,26,18.30
2018,06,19,04,27,18.30
2018,06,19,04,28,18.30
2018,06,19,04,29,18.30
2018,06,19,04,30,18.30
2018,06,19,04,31,18.30
2018,06,19,04,32,18.30
2018,06,19,04,33,18.30
2018,06,19,04,34,18.30
2018,06,19,04,35,18.30
2018,06,19,04,36,18.30
2018,06,19,04,37,18.30
2018,06,19,04,38,18.30
2018,06,19,04,39,18.30
2018,06,19,04,40,18.30
2018,06,19,04,41,18.30
2018,06,19,04,42,18.30
2018,06,19,04,43,18.20
2018,06,19,04,44,18.20
2018,06,19,04,45,18.20
2018,06,19,04,46,18.20
2018,06,19,04,47,18.20
2018,06,19,04,48,18.20
2018,06,19,04,49,18.10
2018,06,19,04,50,18.10
2018,06,19,04,51,18.10
2018,06,19,04,52,18.00
2018,06,19,04,53,18.00
2018,06,19,04,54,17.90
2018,06,19,04,55,17.90
2018,06,19,04,56,17.80
2018,06,19,04,57,17.70
2018,06,19,04,58,17.70
2018,06,19,04,59,17.60
2018,06,19,05,00,17.60
2018,06,19,05,01,17.50
2018,06,19,05,02,17.50
2018,06,19,05,03,17.40
2018,06,19,05,04,17.40
2018,06,19,05,05,17.30
2018,06,19,05,06,17.30
2018,06,19,05,07,17.30
2018,06,19,05,08,17.20
2018,06,19,05,09,17.20
2018,06,19,05,10,17.10
2018,06,19,05,11,17.10
2018,06,19,05,12,17.10
2018,06,19,05,13,17.00
2018,06,19,05,14,17.00
2018,06,19,05,15,16.90
2018,06,19,05,16,16.90
2018,06,19,05,17,16.90
2018,06,19,05,18,16.90
2018,06,19,05,19,16.90
2018,06,19,05,20,16.90
2018,06,19,05,21,16.80
2018,06,19,05,22,16.80
2018,06,19,05,23,16.80
2018,06,19,05,24,16.80
2018,06,19,05,25,16.80
2018,06,19,05,26,16.80
2018,06,19,05,27,16.80
2018,06,19,05,28,16.80
2018,06,19,05,29,16.80
2018,06,19,05,30,16.80
2018,06,19,05,31,16.80
2018,06,19,05,32,16.80
2018,06,19,05,33,16.80
2018,06,19,05,34,16.80
2018,06,19,05,35,16.80
2018,06,19,05,36,16.80
2018,06,19,05,37,16.80
2018,06,19,05,38,16.80
2018,06,19,05,39,16.80
2018,06,19,05,40,16.80
2018,06,19,05,41,16.90
2018,06,19,05,42,16.90
2018,06,19,05,43,16.90
2018,06,19,05,44,16.90
2018,06,19,05,45,16.90
2018,06,19,05,46,16.90
2018,06,19,05,47,16.90
2018,06,19,05,48,17.00
2018,06,19,05,49,17.00
2018,06,19,05,50,17.00
2018,06,19,05,51,17.10
2018,06,19,05,52,17.10
2018,06,19,05,53,17.10
2018,06,19,05,54,17.20
2018,06,19,05,55,17.20
2018,06,19,05,56,17.30
2018,06,19,05,57,17.30
2018,06,19,05,58,17.40
2018,06,19,05,59,17.40
2018,06,19,06,00,17.50
2018,06,19,06,01,17.50
2018,06,19,06,02,17.60
2018,06,19,06,03,17.60
2018,06,19,06,04,17.70
2018,06,19,06,05,17.70
2018,06,19,06,06,17.80
2018,06,19,06,07,17.80
2018,06,19,06,08,17.80
2018,06,19,06,09,17.80
2018,06,19,06,10,17.80
2018,06,19,06,11,17.90
2018,06,19,06,12,17.90
2018,06,19,06,13,18.00
2018,06,19,06,14,18.00
2018,06,19,06,15,18.10
2018,06,19,06,16,18.10
2018,06,19,06,17,18.20
2018,06,19,06,18,18.20
2018,06,19,06,19,18.30
2018,06,19,06,20,18.30
2018,06,19,06,21,18.30
2018,06,19,06,22,18.30
2018,06,19,06,23,18.40
2018,06,19,06,24,18.40
2018,06,19,06,25,18.40
2018,06,19,06,26,18.40
2018,06,19,06,27,18.50
2018,06,19,06,28,18.50
2018,06,19,06,29,18.50
2018,06,19,06,30,18.50
2018,06,19,06,31,18.50
2018,06,19,06,32,18.50
2018,06,19,06,33,18.50
2018,06,19,06,34,18.40
2018,06,19,06,35,18.40
2018,06,19,06,36,18.40
2018,06,19,06,37,18.40
2018,06,19,06,38,18.40
2018,06,19,06,39,18.40
2018,06,19,06,40,18.40
2018,06,19,06,41,18.40
2018,06,19,06,42,18.40
2018,06,19,06,43,18.40
2018,06,19,06,44,18.40
2018,06,19,06,45,18.40
2018,06,19,06,46,18.40
2018,06,19,06,47,18.30
2018,06,19,06,48,18.30
2018,06,19,06,49,18.30
2018,06,19,06,50,18.30
2018,06,19,06,51,18.30
2018,06,19,06,52,18.30
2018,06,19,06,53,18.20
2018,06,19,06,54,18.20
2018,06,19,06,55,18.20
2018,06,19,06,56,18.20
2018,06,19,06,57,18.20
2018,06,19,06,58,18.10
2018,06,19,06,59,18.10
2018,06,19,07,00,18.10
2018,06,19,07,01,18.10
2018,06,19,07,02,18.10
2018,06,19,07,03,18.10
2018,06,19,07,04,18.10
2018,06,19,07,05,18.10
2018,06,19,07,06,18.20
2018,06,19,07,07,18.20
2018,06,19,07,08,18.30
2018,06,19,07,09,18.30
2018,06,19,07,10,18.40
2018,06,19,07,11,18.40
2018,06,19,07,12,18.40
2018,06,19,07,13,18.50
2018,06,19,07,14,18.60
2018,06,19,07,15,18.60
2018,06,19,07,16,18.60
2018,06,19,07,17,18.70
2018,06,19,07,18,18.70
2018,06,19,07,19,18.60
2018,06,19,07,20,18.60
2018,06,19,07,21,18.60
2018,06,19,07,22,18.50
2018,06,19,07,23,18.50
2018,06,19,07,24,18.50
2018,06,19,07,25,18.50
2018,06,19,07,26,18.50
2018,06,19,07,27,18.60
2018,06,19,07,28,18.60
2018,06,19,07,29,18.60
2018,06,19,07,30,18.60
2018,06,19,07,31,18.60
2018,06,19,07,32,18.70
2018,06,19,07,33,18.70
2018,06,19,07,34,18.70
2018,06,19,07,35,18.70
2018,06,19,07,36,18.70
2018,06,19,07,37,18.80
2018,06,19,07,38,18.80
2018,06,19,07,39,18.90
2018,06,19,07,40,18.90
2018,06,19,07,41,18.90
2018,06,19,07,42,18.90
2018,06,19,07,43,18.90
2018,06,19,07,44,18.90
2018,06,19,07,45,18.80
2018,06,19,07,46,18.80
2018,06,19,07,47,18.80
2018,06,19,07,48,18.80
2018,06,19,07,49,18.80
2018,06,19,07,50,18.80
2018,06,19,07,51,18.80
2018,06,19,07,52,18.80
2018,06,19,07,53,18.80
2018,06,19,07,54,18.80
2018,06,19,07,55,18.80
2018,06,19,07,56,18.80
2018,06,19,07,57,18.80
2018,06,19,07,58,18.90
2018,06,19,07,59,18.90
2018,06,19,08,00,18.80
2018,06,19,08,01,18.80
2018,06,19,08,02,18.80
2018,06,19,08,03,18.80
2018,06,19,08,04,18.70
2018,06,19,08,05,18.80
2018,06,19,08,06,18.70
2018,06,19,08,07,18.70
2018,06,19,08,08,18.70
2018,06,19,08,09,18.70
2018,06,19,08,10,18.70
2018,06,19,08,11,18.70
2018,06,19,08,12,18.70
2018,06,19,08,13,18.70
2018,06,19,08,14,18.70
2018,06,19,08,15,18.70
2018,06,19,08,16,18.70
2018,06,19,08,17,18.70
2018,06,19,08,18,18.70
2018,06,19,08,19,18.70
2018,06,19,08,20,18.70
2018,06,19,08,21,18.80
2018,06,19,08,22,18.80
2018,06,19,08,23,18.80
2018,06,19,08,24,18.80
2018,06,19,08,25,18.80
2018,06,19,08,26,18.80
2018,06,19,08,27,18.70
2018,06,19,08,28,18.60
2018,06,19,08,29,18.60
2018,06,19,08,30,18.50
2018,06,19,08,31,18.50
2018,06,19,08,32,18.40
2018,06,19,08,33,18.40
2018,06,19,08,34,18.40
2018,06,19,08,35,18.30
2018,06,19,08,36,18.30
2018,06,19,08,37,18.20
2018,06,19,08,38,18.10
2018,06,19,08,39,18.10
2018,06,19,08,40,18.00
2018,06,19,08,41,18.00
2018,06,19,08,42,18.00
2018,06,19,08,43,18.00
2018,06,19,08,44,18.10
2018,06,19,08,45,18.10
2018,06,19,08,46,18.10
2018,06,19,08,47,18.20
2018,06,19,08,48,18.20
2018,06,19,08,49,18.20
2018,06,19,08,50,18.20
2018,06,19,08,51,18.30
2018,06,19,08,52,18.30
2018,06,19,08,53,18.30
2018,06,19,08,54,18.20
2018,06,19,08,55,18.20
2018,06,19,08,56,18.20
2018,06,19,08,57,18.30
2018,06,19,08,58,18.30
2018,06,19,08,59,18.40
2018,06,19,09,00,18.40
2018,06,19,09,01,18.40
2018,06,19,09,02,18.50
2018,06,19,09,03,18.50
2018,06,19,09,04,18.60
2018,06,19,09,05,18.60
2018,06,19,09,06,18.70
2018,06,19,09,07,18.70
2018,06,19,09,08,18.70
2018,06,19,09,09,18.80
2018,06,19,09,10,18.80
2018,06,19,09,11,18.80
2018,06,19,09,12,18.80
2018,06,19,09,13,18.80
2018,06,19,09,14,18.90
2018,06,19,09,15,18.90
2018,06,19,09,16,18.80
2018,06,19,09,17,18.80
2018,06,19,09,18,18.70
2018,06,19,09,19,18.70
2018,06,19,09,20,18.70
2018,06,19,09,21,18.60
2018,06,19,09,22,18.60
2018,06,19,09,23,18.60
2018,06,19,09,24,18.60
2018,06,19,09,25,18.60
2018,06,19,09,26,18.60
2018,06,19,09,27,18.60
2018,06,19,09,28,18.60
2018,06,19,09,29,18.60
2018,06,19,09,30,18.60
2018,06,19,09,31,18.60
2018,06,19,09,32,18.50
2018,06,19,09,33,18.50
2018,06,19,09,34,18.50
2018,06,19,09,35,18.50
2018,06,19,09,36,18.50
2018,06,19,09,37,18.60
2018,06,19,09,38,18.60
2018,06,19,09,39,18.60
2018,06,19,09,40,18.70
2018,06,19,09,41,18.70
2018,06,19,09,42,18.70
2018,06,19,09,43,18.70
2018,06,19,09,44,18.70
2018,06,19,09,45,18.80
2018,06,19,09,46,18.80
2018,06,19,09,47,18.80
2018,06,19,09,48,18.80
2018,06,19,09,49,18.80
2018,06,19,09,50,18.70
2018,06,19,09,51,18.70
2018,06,19,09,52,18.70
2018,06,19,09,53,18.80
2018,06,19,09,54,18.80
2018,06,19,09,55,18.80
2018,06,19,09,56,18.90
2018,06,19,09,57,18.90
2018,06,19,09,58,19.00
2018,06,19,09,59,19.00
2018,06,19,10,00,19.10
2018,06,19,10,01,19.10
2018,06,19,10,02,19.10
2018,06,19,10,03,19.10
2018,06,19,10,04,19.10
2018,06,19,10,05,19.10
2018,06,19,10,06,19.00
2018,06,19,10,07,19.00
2018,06,19,10,08,18.90
2018,06,19,10,09,18.90
2018,06,19,10,10,19.00
2018,06,19,10,11,19.00
2018,06,19,10,12,19.00
2018,06,19,10,13,19.10
2018,06,19,10,14,19.10
2018,06,19,10,15,19.10
2018,06,19,10,16,19.20
2018,06,19,10,17,19.20
2018,06,19,10,18,19.10
2018,06,19,10,19,19.10
2018,06,19,10,20,19.10
2018,06,19,10,21,19.20
2018,06,19,10,22,19.30
2018,06,19,10,23,19.30
2018,06,19,10,24,19.40
2018,06,19,10,25,19.50
2018,06,19,10,26,19.60
2018,06,19,10,27,19.60
2018,06,19,10,28,19.70
2018,06,19,10,29,19.70
2018,06,19,10,30,19.70
2018,06,19,10,31,19.70
2018,06,19,10,32,19.80
2018,06,19,10,33,19.90
2018,06,19,10,34,20.00
2018,06,19,10,35,20.10
2018,06,19,10,36,20.20
2018,06,19,10,37,20.20
2018,06,19,10,38,20.30
2018,06,19,10,39,20.40
2018,06,19,10,40,20.40
2018,06,19,10,41,20.40
2018,06,19,10,42,20.40
2018,06,19,10,43,20.30
2018,06,19,10,44,20.30
2018,06,19,10,45,20.20
2018,06,19,10,46,20.20
2018,06,19,10,47,20.20
2018,06,19,10,48,20.20
2018,06,19,10,49,20.20
2018,06,19,10,50,20.20
2018,06,19,10,51,20.20
2018,06,19,10,52,20.20
2018,06,19,10,53,20.20
2018,06,19,10,54,20.20
2018,06,19,10,55,20.20
2018,06,19,10,56,20.20
2018,06,19,10,57,20.20
2018,06,19,10,58,20.20
2018,06,19,10,59,20.20
2018,06,19,11,00,20.20
2018,06,19,11,01,20.20
2018,06,19,11,02,20.20
2018,06,19,11,03,20.20
2018,06,19,11,04,20.20
2018,06,19,11,05,20.20
2018,06,19,11,06,20.30
2018,06,19,11,07,20.40
2018,06,19,11,08,20.50
2018,06,19,11,09,20.60
2018,06,19,11,10,20.70
2018,06,19,11,11,20.70
2018,06,19,11,12,20.80
2018,06,19,11,13,20.90
2018,06,19,11,14,21.00
2018,06,19,11,15,21.00
2018,06,19,11,16,21.00
2018,06,19,11,17,21.00
2018,06,19,11,18,21.00
2018,06,19,11,19,21.00
2018,06,19,11,20,21.00
2018,06,19,11,21,20.90
2018,06,19,11,22,20.90
2018,06,19,11,23,20.90
2018,06,19,11,24,20.80
2018,06,19,11,25,20.80
2018,06,19,11,26,20.80
2018,06,19,11,27,20.90
2018,06,19,11,28,21.00
2018,06,19,11,29,21.00
2018,06,19,11,30,21.10
2018,06,19,11,31,21.30
2018,06,19,11,32,21.40
2018,06,19,11,33,21.50
2018,06,19,11,34,21.50
2018,06,19,11,35,21.60
2018,06,19,11,36,21.60
2018,06,19,11,37,21.60
2018,06,19,11,38,21.60
2018,06,19,11,39,21.50
2018,06,19,11,40,21.50
2018,06,19,11,41,21.50
2018,06,19,11,42,21.60
2018,06,19,11,43,21.60
2018,06,19,11,44,21.50
2018,06,19,11,45,21.50
2018,06,19,11,46,21.60
2018,06,19,11,47,21.60
2018,06,19,11,48,21.70
2018,06,19,11,49,21.70
2018,06,19,11,50,21.80
2018,06,19,11,51,21.90
2018,06,19,11,52,22.00
2018,06,19,11,53,22.00
2018,06,19,11,54,22.10
2018,06,19,11,55,22.10
2018,06,19,11,56,22.10
2018,06,19,11,57,22.10
2018,06,19,11,58,22.20
2018,06,19,11,59,22.20
2018,06,19,12,00,22.10
2018,06,19,12,01,22.10
2018,06,19,12,02,22.00
2018,06,19,12,03,22.00
2018,06,19,12,04,22.00
2018,06,19,12,05,22.00
2018,06,19,12,06,22.00
2018,06,19,12,07,21.80
2018,06,19,12,08,21.70
2018,06,19,12,09,21.50
2018,06,19,12,10,21.50
2018,06,19,12,11,21.40
2018,06,19,12,12,21.40
2018,06,19,12,13,21.50
2018,06,19,12,14,21.60
2018,06,19,12,15,21.60
2018,06,19,12,16,21.70
2018,06,19,12,17,21.70
2018,06,19,12,18,21.60
2018,06,19,12,19,21.50
2018,06,19,12,20,21.40
2018,06,19,12,21,21.50
2018,06,19,12,22,21.50
2018,06,19,12,23,21.60
2018,06,19,12,24,21.60
2018,06,19,12,25,21.60
2018,06,19,12,26,21.60
2018,06,19,12,27,21.60
2018,06,19,12,28,21.60
2018,06,19,12,29,21.60
2018,06,19,12,30,21.50
2018,06,19,12,31,21.50
2018,06,19,12,32,21.40
2018,06,19,12,33,21.30
2018,06,19,12,34,21.20
2018,06,19,12,35,21.20
2018,06,19,12,36,21.10
2018,06,19,12,37,20.90
2018,06,19,12,38,20.80
2018,06,19,12,39,20.70
2018,06,19,12,40,20.60
2018,06,19,12,41,20.40
2018,06,19,12,42,20.40
2018,06,19,12,43,20.30
2018,06,19,12,44,20.20
2018,06,19,12,45,20.20
2018,06,19,12,46,20.10
2018,06,19,12,47,20.10
2018,06,19,12,48,20.10
2018,06,19,12,49,20.10
2018,06,19,12,50,20.20
2018,06,19,12,51,20.30
2018,06,19,12,52,20.30
2018,06,19,12,53,20.30
2018,06,19,12,54,20.30
2018,06,19,12,55,20.30
2018,06,19,12,56,20.30
2018,06,19,12,57,20.30
2018,06,19,12,58,20.30
2018,06,19,12,59,20.30
2018,06,19,13,00,20.30
2018,06,19,13,01,20.30
2018,06,19,13,02,20.30
2018,06,19,13,03,20.30
2018,06,19,13,04,20.40
2018,06,19,13,05,20.40
2018,06,19,13,06,20.50
2018,06,19,13,07,20.70
2018,06,19,13,08,20.70
2018,06,19,13,09,20.80
2018,06,19,13,10,20.80
2018,06,19,13,11,20.80
2018,06,19,13,12,20.80
2018,06,19,13,13,20.70
2018,06,19,13,14,20.60
2018,06,19,13,15,20.60
2018,06,19,13,16,20.60
2018,06,19,13,17,20.70
2018,06,19,13,18,20.70
2018,06,19,13,19,20.80
2018,06,19,13,20,20.80
2018,06,19,13,21,20.80
2018,06,19,13,22,20.70
2018,06,19,13,23,20.60
2018,06,19,13,24,20.60
2018,06,19,13,25,20.60
2018,06,19,13,26,20.60
2018,06,19,13,27,20.70
2018,06,19,13,28,20.70
2018,06,19,13,29,20.70
2018,06,19,13,30,20.70
2018,06,19,13,31,20.60
2018,06,19,13,32,20.60
2018,06,19,13,33,20.60
2018,06,19,13,34,20.60
2018,06,19,13,35,20.50
2018,06,19,13,36,20.60
2018,06,19,13,37,20.60
2018,06,19,13,38,20.70
2018,06,19,13,39,20.70
2018,06,19,13,40,20.80
2018,06,19,13,41,20.90
2018,06,19,13,42,21.00
2018,06,19,13,43,21.00
2018,06,19,13,44,21.00
2018,06,19,13,45,21.10
2018,06,19,13,46,21.10
2018,06,19,13,47,21.10
2018,06,19,13,48,21.00
2018,06,19,13,49,21.00
2018,06,19,13,50,20.90
2018,06,19,13,51,20.80
2018,06,19,13,52,20.80
2018,06,19,13,53,20.70
2018,06,19,13,54,20.80
2018,06,19,13,55,20.80
2018,06,19,13,56,20.90
2018,06,19,13,57,21.00
2018,06,19,13,58,21.10
2018,06,19,13,59,21.10
2018,06,19,14,00,21.10
2018,06,19,14,01,21.10
2018,06,19,14,02,21.20
2018,06,19,14,03,21.20
2018,06,19,14,04,21.20
2018,06,19,14,05,21.20
2018,06,19,14,06,21.20
2018,06,19,14,07,21.30
2018,06,19,14,08,21.20
2018,06,19,14,09,21.20
2018,06,19,14,10,21.20
2018,06,19,14,11,21.20
2018,06,19,14,12,21.20
2018,06,19,14,13,21.20
2018,06,19,14,14,21.20
2018,06,19,14,15,21.30
2018,06,19,14,16,21.30
2018,06,19,14,17,21.30
2018,06,19,14,18,21.20
2018,06,19,14,19,21.10
2018,06,19,14,20,21.00
2018,06,19,14,21,20.90
2018,06,19,14,22,20.80
2018,06,19,14,23,20.70
2018,06,19,14,24,20.60
2018,06,19,14,25,20.50
2018,06,19,14,26,20.40
2018,06,19,14,27,20.30
2018,06,19,14,28,20.30
2018,06,19,14,29,20.30
2018,06,19,14,30,20.30
2018,06,19,14,31,20.40
2018,06,19,14,32,20.40
2018,06,19,14,33,20.40
2018,06,19,14,34,20.40
2018,06,19,14,35,20.40
2018,06,19,14,36,20.40
2018,06,19,14,37,20.40
2018,06,19,14,38,20.40
2018,06,19,14,39,20.30
2018,06,19,14,40,20.30
2018,06,19,14,41,20.20
2018,06,19,14,42,20.10
2018,06,19,14,43,20.10
2018,06,19,14,44,20.10
2018,06,19,14,45,20.10
2018,06,19,14,46,20.10
2018,06,19,14,47,20.10
2018,06,19,14,48,20.00
2018,06,19,14,49,20.10
2018,06,19,14,50,20.10
2018,06,19,14,51,20.10
2018,06,19,14,52,20.10
2018,06,19,14,53,20.10
2018,06,19,14,54,20.10
2018,06,19,14,55,20.10
2018,06,19,14,56,20.20
2018,06,19,14,57,20.20
2018,06,19,14,58,20.20
2018,06,19,14,59,20.20
2018,06,19,15,00,20.20
2018,06,19,15,01,20.20
2018,06,19,15,02,20.20
2018,06,19,15,03,20.20
2018,06,19,15,04,20.20
2018,06,19,15,05,20.20
2018,06,19,15,06,20.20
2018,06,19,15,07,20.20
2018,06,19,15,08,20.20
2018,06,19,15,09,20.10
2018,06,19,15,10,20.10
2018,06,19,15,11,20.10
2018,06,19,15,12,20.10
2018,06,19,15,13,20.20
2018,06,19,15,14,20.30
2018,06,19,15,15,20.40
2018,06,19,15,16,20.50
2018,06,19,15,17,20.50
2018,06,19,15,18,20.70
2018,06,19,15,19,20.80
2018,06,19,15,20,20.80
2018,06,19,15,21,20.80
2018,06,19,15,22,21.00
2018,06,19,15,23,21.00
2018,06,19,15,24,21.20
2018,06,19,15,25,21.20
2018,06,19,15,26,21.20
2018,06,19,15,27,21.30
2018,06,19,15,28,21.40
2018,06,19,15,29,21.40
2018,06,19,15,30,21.50
2018,06,19,15,31,21.60
2018,06,19,15,32,21.70
2018,06,19,15,33,21.70
2018,06,19,15,34,21.80
2018,06,19,15,35,21.80
2018,06,19,15,36,21.80
2018,06,19,15,37,21.80
2018,06,19,15,38,21.80
2018,06,19,15,39,21.80
2018,06,19,15,40,21.80
2018,06,19,15,41,21.80
2018,06,19,15,42,21.80
2018,06,19,15,43,21.80
2018,06,19,15,44,21.80
2018,06,19,15,45,21.80
2018,06,19,15,46,21.70
2018,06,19,15,47,21.60
2018,06,19,15,48,21.60
2018,06,19,15,49,21.60
2018,06,19,15,50,21.60
2018,06,19,15,51,21.60
2018,06,19,15,52,21.60
2018,06,19,15,53,21.60
2018,06,19,15,54,21.70
2018,06,19,15,55,21.70
2018,06,19,15,56,21.80
2018,06,19,15,57,21.90
2018,06,19,15,58,21.90
2018,06,19,15,59,21.90
2018,06,19,16,00,21.90
2018,06,19,16,01,21.90
2018,06,19,16,02,21.90
2018,06,19,16,03,21.90
2018,06,19,16,04,22.00
2018,06,19,16,05,22.10
2018,06,19,16,06,22.10
2018,06,19,16,07,22.10
2018,06,19,16,08,22.10
2018,06,19,16,09,22.20
2018,06,19,16,10,22.20
2018,06,19,16,11,22.20
2018,06,19,16,12,22.20
2018,06,19,16,13,22.20
2018,06,19,16,14,22.20
2018,06,19,16,15,22.30
2018,06,19,16,16,22.30
2018,06,19,16,17,22.30
2018,06,19,16,18,22.20
2018,06,19,16,19,22.00
2018,06,19,16,20,21.80
2018,06,19,16,21,21.70
2018,06,19,16,22,21.60
2018,06,19,16,23,21.50
2018,06,19,16,24,21.50
2018,06,19,16,25,21.40
2018,06,19,16,26,21.40
2018,06,19,16,27,21.40
2018,06,19,16,28,21.40
2018,06,19,16,29,21.50
2018,06,19,16,30,21.50
2018,06,19,16,31,21.50
2018,06,19,16,32,21.60
2018,06,19,16,33,21.70
2018,06,19,16,34,21.70
2018,06,19,16,35,21.70
2018,06,19,16,36,21.70
2018,06,19,16,37,21.60
2018,06,19,16,38,21.60
2018,06,19,16,39,21.60
2018,06,19,16,40,21.60
2018,06,19,16,41,21.70
2018,06,19,16,42,21.70
2018,06,19,16,43,21.70
2018,06,19,16,44,21.70
2018,06,19,16,45,21.70
2018,06,19,16,46,21.70
2018,06,19,16,47,21.70
2018,06,19,16,48,21.60
2018,06,19,16,49,21.60
2018,06,19,16,50,21.60
2018,06,19,16,51,21.70
2018,06,19,16,52,21.70
2018,06,19,16,53,21.80
2018,06,19,16,54,21.90
2018,06,19,16,55,21.90
2018,06,19,16,56,21.90
2018,06,19,16,57,21.80
2018,06,19,16,58,21.70
2018,06,19,16,59,21.60
2018,06,19,17,00,21.50
2018,06,19,17,01,21.40
2018,06,19,17,02,21.30
2018,06,19,17,03,21.30
2018,06,19,17,04,21.20
2018,06,19,17,05,21.20
2018,06,19,17,06,21.20
2018,06,19,17,07,21.20
2018,06,19,17,08,21.20
2018,06,19,17,09,21.30
2018,06,19,17,10,21.30
2018,06,19,17,11,21.20
2018,06,19,17,12,21.20
2018,06,19,17,13,21.20
2018,06,19,17,14,21.20
2018,06,19,17,15,21.20
2018,06,19,17,16,21.30
2018,06,19,17,17,21.30
2018,06,19,17,18,21.40
2018,06,19,17,19,21.50